Theta_e
316 324 327 325 322 325 327 329 331 332 334 333 332 331 332 340 346 360 346 347 354 363 355 354 352 345 340 339 342 348 345 339 337 331 332 336 340 341 339 340 341 343 347 346 345 344 342 343 343
320 324 322 322 322 325 327 329 329 331 332 331 330 330 332 342 342 344 345 349 353 366 357 355 349 343 339 339 340 346 344 340 336 331 333 338 340 340 340 343 347 346 347 347 346 345 344 342 335
321 324 325 323 323 324 326 328 328 331 330 330 330 329 329 340 340 342 344 350 354 367 361 358 350 342 340 338 343 345 343 341 336 331 333 338 341 343 343 350 351 347 346 345 344 342 339 335 332
321 323 323 324 325 325 326 327 326 326 327 326 327 328 335 334 338 341 345 350 352 365 364 361 350 342 340 339 343 346 343 342 334 331 335 339 347 346 344 349 350 347 345 343 340 338 336 334 331
319 323 324 322 322 323 324 325 325 324 325 324 325 325 331 331 334 337 344 349 353 362 363 361 355 342 340 341 343 345 344 341 333 333 337 340 343 343 342 344 347 345 344 340 338 336 334 328 324
320 320 321 322 323 324 325 326 325 324 325 325 324 323 326 327 329 332 339 349 355 364 362 360 358 342 341 342 343 344 344 341 333 337 338 339 342 341 339 338 341 345 343 341 338 336 328 324 325
320 322 322 321 321 322 325 326 325 325 324 324 325 323 324 325 324 327 336 351 364 364 364 359 354 342 343 343 343 343 343 342 336 341 340 340 343 342 339 336 346 346 343 341 336 333 326 328 327
320 320 321 321 321 323 324 325 324 324 324 325 324 324 325 325 322 325 331 341 352 363 365 361 354 348 346 343 343 343 343 342 341 344 344 343 344 342 338 339 346 344 343 338 336 330 327 327 326
318 318 319 320 321 322 324 324 324 323 322 322 322 322 323 322 322 323 326 334 352 360 363 362 356 351 348 350 350 342 342 343 344 346 346 343 344 339 341 337 343 339 338 335 335 330 327 326 325
317 317 318 319 320 319 320 321 321 321 321 321 321 321 321 321 321 322 323 325 352 360 361 361 357 353 347 347 350 349 349 349 347 347 343 341 344 339 344 339 344 339 334 334 332 328 326 326 326
319 319 319 319 319 319 318 319 320 319 319 319 319 320 321 321 321 321 321 323 325 352 360 359 357 355 350 347 348 345 346 347 346 346 342 339 342 339 343 343 341 342 335 333 330 333 336 337 337
319 319 318 318 319 318 318 318 318 318 318 319 319 320 320 320 321 322 321 322 323 331 348 360 359 356 355 351 347 344 345 344 343 343 341 339 342 340 344 348 347 342 341 337 340 342 342 343 342
317 318 318 318 318 317 317 317 317 317 317 318 318 318 318 319 320 319 320 321 321 324 329 354 356 358 355 354 348 346 346 344 342 342 344 340 344 343 344 346 343 341 342 341 341 341 341 344 345
317 317 317 317 317 317 317 317 317 317 318 318 318 317 317 318 319 319 320 321 322 323 326 344 353 351 358 354 350 347 348 345 344 345 347 341 343 348 345 343 342 343 340 341 341 339 342 343 345
318 317 317 318 319 318 318 318 318 319 319 319 319 318 318 317 317 319 320 321 321 322 323 330 355 350 353 355 352 348 352 349 348 348 348 342 346 346 344 342 342 341 339 338 344 347 347 343 343
318 319 320 320 320 319 318 319 319 320 319 319 319 319 319 317 318 319 319 320 320 320 325 328 330 355 352 353 352 353 352 351 349 348 350 346 347 347 340 343 342 341 338 341 345 346 346 348 345
319 319 318 319 320 319 319 319 319 319 320 320 320 321 321 320 322 321 319 319 320 320 321 330 328 332 355 353 352 352 353 354 350 348 349 348 348 345 342 343 341 338 338 346 346 347 346 345 346
319 318 317 317 317 318 317 317 318 318 318 320 320 320 322 322 323 322 321 319 320 319 320 325 332 332 334 355 354 352 353 354 354 349 348 348 347 345 344 342 339 337 346 346 345 346 346 346 347
318 317 317 316 317 316 317 318 320 320 320 319 320 321 322 323 323 322 322 321 320 319 322 325 325 329 339 350 356 356 352 352 353 354 349 349 347 345 343 341 337 345 344 347 347 348 346 348 344
315 316 316 317 317 317 318 319 320 321 319 319 321 322 323 323 324 324 322 322 321 321 326 326 324 330 333 346 353 355 355 351 352 353 350 348 347 345 342 340 339 348 347 349 349 348 348 344 338
316 316 316 316 316 316 316 318 318 320 321 322 323 323 323 323 324 325 325 324 323 322 321 327 326 324 331 339 345 351 352 351 350 352 350 349 347 345 342 336 342 345 348 347 348 348 348 344 334
316 316 316 316 317 316 317 320 320 320 320 321 323 322 322 322 323 324 325 327 324 323 322 325 328 330 333 333 336 344 352 352 350 349 349 349 347 344 338 338 350 349 345 349 348 348 346 344 337
317 317 317 318 318 318 318 319 319 319 319 321 322 322 321 321 322 322 323 323 324 322 321 323 327 325 334 341 345 346 353 351 350 349 348 349 346 343 347 348 350 346 348 347 345 342 335 331 329
317 318 319 319 320 323 321 325 323 323 325 324 323 322 321 321 320 320 321 322 322 322 322 320 327 328 334 336 343 346 351 353 349 348 348 348 345 345 348 350 350 347 344 340 338 332 328 325 323
317 318 324 321 321 326 326 326 327 326 324 324 324 321 321 322 322 321 320 320 322 322 322 323 322 329 333 337 343 343 350 352 352 348 348 348 344 347 348 348 345 340 337 332 326 323 321 321 319
317 316 322 322 322 320 319 323 324 323 324 321 320 321 321 321 321 322 322 323 321 322 322 322 322 329 330 333 343 342 344 350 350 348 346 347 343 348 346 343 342 336 328 326 323 318 315 314 315
318 318 318 326 324 326 322 321 324 325 323 321 321 321 322 323 323 323 323 323 324 325 325 326 327 327 327 328 340 341 341 347 349 346 346 346 346 343 340 336 330 327 324 320 318 314 315 318 318
318 318 323 327 331 327 321 323 327 326 324 322 322 322 321 321 322 322 322 323 323 322 323 323 324 325 325 327 337 340 343 345 348 349 347 343 340 336 333 329 326 322 319 317 314 318 319 318 317
318 318 321 322 325 326 324 322 325 326 323 322 322 322 323 323 322 321 320 320 321 321 322 321 324 326 325 324 325 340 340 344 348 349 346 339 338 336 329 325 321 317 316 318 318 319 317 315 314
316 318 320 327 327 327 328 329 322 320 322 323 322 321 321 321 321 320 319 320 321 321 322 322 322 325 325 326 325 336 340 339 344 345 344 335 331 329 324 319 316 317 318 317 317 316 315 313 311
Wind_Speed
8 13 10 15 6 7 15 18 19 20 2 12 12 9 11 17 12 7 16 11 11 18 17 22 19 18 15 13 12 13 14 14 12 12 13 15 16 17 17 16 17 15 13 12 10 8 7 4 1
12 16 11 6 8 11 14 20 18 19 16 10 4 4 3 16 11 12 15 11 8 17 18 21 19 18 15 13 15 15 14 14 13 14 14 15 15 16 17 17 16 14 12 11 9 8 6 3 1
11 12 7 5 12 15 16 22 15 17 14 6 3 5 6 7 13 5 11 9 10 16 15 16 18 17 17 15 15 17 17 15 14 15 14 15 15 16 16 15 14 12 11 9 7 6 5 3 2
9 7 7 10 19 18 22 22 10 8 5 3 5 2 8 9 4 7 8 5 6 13 18 15 18 17 16 17 16 17 18 18 17 16 15 16 15 16 16 15 13 11 9 8 6 5 3 2 1
9 6 12 15 18 19 21 25 7 5 9 9 5 3 3 11 8 7 8 8 5 18 19 16 15 18 16 16 18 17 17 17 18 18 17 16 16 16 16 15 13 10 7 6 5 3 1 1 2
7 6 11 14 19 21 21 8 3 2 10 10 4 4 3 14 10 7 8 6 13 24 23 20 18 19 17 18 18 18 18 16 18 17 17 16 17 16 15 15 13 10 7 5 3 2 2 2 3
12 11 17 20 19 22 14 10 5 2 9 10 7 3 2 16 9 6 5 7 16 17 18 15 21 22 18 17 19 19 18 17 18 17 16 16 16 15 15 14 12 10 7 5 4 3 3 3 5
10 11 21 18 17 19 16 6 2 1 7 14 8 3 10 11 8 6 5 7 5 11 17 18 18 21 19 17 18 18 19 18 19 19 17 16 15 14 14 14 13 10 7 6 5 5 5 6 7
13 10 13 18 20 14 17 4 6 4 4 12 11 14 16 14 7 5 10 7 10 8 9 15 19 19 19 16 16 18 18 18 18 19 17 17 14 15 13 13 11 11 9 8 7 7 7 8 9
7 10 17 15 13 13 20 16 13 9 11 11 12 15 21 16 7 4 10 10 16 16 11 12 19 21 21 20 18 17 17 18 20 20 19 18 18 14 13 14 14 12 10 9 8 8 8 10 11
7 12 17 21 14 13 19 17 14 14 14 14 18 14 17 13 2 3 11 13 13 12 9 12 18 19 23 23 22 20 19 20 20 20 20 20 20 14 18 19 15 14 13 11 9 9 8 6 10
9 14 15 16 13 17 15 19 17 17 18 19 19 18 16 13 12 11 13 13 12 4 13 11 15 25 21 16 25 25 22 21 21 23 21 22 20 20 21 19 16 13 13 9 16 14 10 4 4
14 16 14 12 12 14 16 18 21 20 20 19 21 19 19 16 16 17 21 14 10 6 5 12 16 17 24 20 25 25 26 27 24 24 22 22 19 22 20 18 19 14 18 12 10 11 7 4 7
16 14 17 18 19 18 19 19 19 19 19 20 20 19 19 20 17 17 18 17 13 12 9 11 14 22 24 19 26 26 26 28 25 26 23 23 22 19 18 16 17 15 12 12 10 9 7 10 10
15 18 18 20 22 21 11 16 19 21 21 20 19 17 18 18 21 14 19 17 16 21 21 16 15 15 24 24 25 29 21 25 24 24 25 24 23 20 19 17 14 13 10 10 4 1 3 8 9
19 20 17 19 16 11 15 16 17 17 18 20 10 15 16 15 17 22 21 21 21 22 20 22 18 19 19 28 29 28 24 23 24 21 25 26 23 17 22 17 16 15 12 12 9 10 12 15 6
17 17 21 21 16 16 16 22 21 17 16 19 15 15 16 15 15 20 21 20 17 17 21 21 22 20 20 22 36 33 29 19 25 24 25 26 21 19 21 15 16 14 14 14 15 16 9 4 6
24 24 24 25 23 25 25 26 25 24 22 20 20 19 18 19 19 20 20 23 22 20 21 15 18 17 21 22 26 37 23 16 18 25 24 28 24 21 23 17 17 17 14 14 14 10 6 6 6
20 23 25 25 24 24 25 25 22 23 21 19 20 19 17 16 16 19 21 20 20 20 22 18 16 16 18 17 19 19 23 25 23 21 27 28 26 24 24 19 19 21 18 15 15 5 5 1 3
21 24 25 25 25 23 21 23 24 26 24 23 22 22 20 18 16 14 18 18 18 14 16 19 17 16 20 15 22 23 28 34 32 21 23 28 27 25 26 19 20 20 19 11 9 6 4 3 4
20 21 22 26 25 23 23 24 21 26 18 14 27 22 18 15 14 12 14 17 17 18 15 17 18 16 20 21 15 21 25 30 33 24 25 27 26 25 26 25 22 21 15 15 11 8 4 5 7
21 20 21 23 20 19 21 17 21 20 20 15 24 16 14 9 11 9 9 11 17 17 19 18 21 19 21 22 23 18 20 23 28 29 26 25 25 27 28 27 20 21 13 15 13 8 4 3 11
19 16 17 21 21 21 22 13 19 21 18 11 10 7 4 6 8 5 6 11 15 20 18 19 24 23 21 18 21 19 17 24 29 30 28 26 30 30 27 23 18 18 16 18 16 12 10 9 11
19 20 20 20 17 17 20 13 18 3 8 11 8 15 5 4 4 8 9 8 10 15 20 20 16 23 20 18 17 20 20 21 25 31 31 33 32 28 29 25 21 20 21 19 17 15 13 13 12
17 17 11 12 11 8 9 10 8 14 14 12 13 8 6 2 4 2 4 5 7 12 13 18 20 21 20 17 19 19 21 21 25 33 28 29 28 26 25 24 25 26 22 21 22 20 16 14 14
21 15 12 21 16 19 17 9 9 11 23 9 4 3 5 3 3 4 5 8 7 5 11 13 12 18 20 18 19 19 19 22 28 32 31 32 32 31 29 33 28 25 27 26 23 20 19 15 15
13 12 17 11 15 15 16 22 14 19 20 8 3 4 5 8 8 5 7 9 13 17 18 20 16 14 6 8 19 16 20 21 25 30 27 32 21 36 38 33 32 27 27 26 24 23 22 17 13
17 17 12 6 6 11 11 7 3 12 13 16 13 15 3 2 4 10 8 13 14 9 11 13 14 13 17 19 13 16 17 19 24 21 20 25 27 37 35 37 37 33 28 26 25 25 20 17 18
17 10 12 10 7 6 13 5 6 5 5 14 14 16 21 19 9 8 6 4 14 20 9 14 14 10 11 19 21 16 13 16 21 20 19 39 38 34 38 37 35 35 33 27 31 25 20 22 18
21 18 17 7 11 10 7 10 17 10 8 12 15 14 17 15 17 8 3 10 12 14 20 13 13 15 9 13 19 14 12 13 17 18 14 40 40 33 38 37 38 34 32 26 30 27 23 21 20
Wind_Direction
278 287 263 264 244 226 255 252 257 278 64 39 53 1 4 53 32 78 79 31 39 121 139 156 158 158 162 165 173 180 175 168 168 168 163 153 150 149 145 140 139 139 139 135 134 137 144 141 123
292 296 243 274 245 250 254 244 245 274 86 67 46 328 294 81 54 65 31 15 75 126 141 160 164 165 162 174 174 179 179 173 173 170 169 158 157 156 152 148 145 144 140 138 139 143 144 150 174
294 277 269 233 239 247 267 279 335 40 67 55 62 71 1 45 58 42 21 31 104 126 137 174 172 172 169 174 180 176 177 178 175 174 173 165 161 164 162 154 155 149 142 142 147 155 161 177 184
270 225 250 260 259 253 236 256 18 3 69 81 335 352 98 75 69 37 19 5 126 148 147 177 182 178 178 174 178 182 181 180 178 176 176 173 169 171 170 165 165 158 154 153 159 163 170 199 256
256 275 244 256 258 259 274 283 83 321 315 317 139 254 109 103 76 35 28 338 133 148 157 168 191 185 184 182 175 186 185 186 182 178 177 180 176 177 179 179 175 172 163 157 154 159 190 262 294
243 228 262 262 260 252 257 259 103 264 305 302 290 202 255 119 70 1 21 27 348 147 148 166 183 191 189 187 181 186 188 189 188 183 182 184 182 181 185 185 182 179 172 170 176 184 240 269 295
253 267 260 266 275 287 302 53 135 194 261 274 28 357 303 75 54 355 5 77 89 123 133 149 169 187 190 191 189 188 190 190 189 192 186 188 189 184 186 185 183 186 188 194 204 223 248 276 290
253 276 271 273 281 280 284 79 76 275 270 324 14 224 240 90 56 339 359 319 122 134 145 155 168 175 182 186 195 191 190 192 190 193 189 188 187 189 187 187 189 197 206 214 225 242 259 275 282
273 266 266 269 270 315 322 222 169 10 307 306 305 294 294 328 4 359 284 223 144 128 152 153 166 175 174 177 185 191 191 190 190 192 193 185 182 186 194 188 205 208 215 225 236 248 260 271 275
246 271 263 275 351 326 317 346 355 331 301 264 250 272 255 274 255 267 288 289 145 147 170 186 170 179 182 180 185 177 179 184 186 191 191 189 181 188 191 199 207 219 226 230 242 254 268 268 272
251 281 306 303 338 328 312 313 313 302 278 272 281 279 291 292 214 264 284 287 299 124 145 185 189 186 187 185 184 177 183 186 185 188 196 185 191 186 188 189 204 219 224 233 237 249 248 257 285
282 291 291 299 304 310 300 310 302 293 288 293 292 294 295 288 290 287 265 252 275 201 170 186 193 207 213 174 181 177 181 189 191 188 197 187 199 184 188 194 194 207 212 230 227 251 243 232 279
281 287 280 309 289 273 278 277 286 283 286 285 279 274 275 265 262 263 272 267 256 292 300 184 205 213 219 189 182 183 185 186 193 190 198 190 192 192 202 207 191 195 208 209 215 241 210 225 236
293 296 301 291 280 276 273 271 282 279 283 275 266 258 268 268 260 254 259 265 217 212 242 209 215 220 219 202 192 195 190 185 195 187 197 198 196 198 200 223 213 203 209 201 224 216 226 240 253
320 294 283 273 263 251 254 279 267 273 273 261 250 258 256 253 257 259 264 271 273 208 215 205 212 228 227 212 212 211 204 188 194 193 191 196 195 206 199 212 207 222 215 228 245 189 253 249 234
275 272 272 271 275 225 214 254 258 285 282 291 244 247 257 262 258 261 251 243 257 271 212 199 208 220 232 221 218 223 229 194 190 204 188 192 200 202 199 202 203 218 211 213 223 224 232 229 278
273 276 299 316 311 297 298 286 294 268 272 277 260 259 261 252 252 247 254 261 257 256 258 192 201 223 223 228 223 225 219 213 193 203 186 190 198 205 200 209 196 211 210 210 217 221 231 292 230
315 305 302 300 299 306 303 290 284 282 273 273 272 252 242 239 250 246 238 238 241 238 253 204 190 220 242 232 227 235 221 217 218 201 192 186 193 204 196 203 196 204 210 220 217 207 212 231 338
300 300 296 294 297 289 279 281 308 299 279 264 261 263 257 253 254 239 239 235 227 227 234 197 198 222 238 241 225 235 226 229 229 229 192 186 187 199 197 201 192 194 204 238 196 169 222 57 69
303 297 292 290 287 284 292 286 278 271 278 271 264 259 254 249 236 232 226 226 219 227 223 185 191 219 234 245 226 225 225 220 222 227 188 183 187 199 199 196 191 196 211 193 168 184 174 154 45
299 296 297 297 304 297 293 284 295 300 328 270 250 243 243 250 249 240 209 211 206 208 233 185 192 225 229 236 243 237 238 234 227 218 180 180 184 196 199 189 198 201 207 191 175 188 191 117 101
300 316 314 302 297 290 301 297 278 272 250 203 273 218 226 244 229 237 251 201 196 202 209 215 196 204 222 231 237 237 226 224 225 221 203 177 187 197 197 198 198 195 190 170 153 148 156 172 131
301 298 295 293 288 281 272 266 271 277 291 301 219 85 15 299 307 262 252 227 209 196 215 223 206 207 209 221 221 233 232 244 231 218 210 189 191 197 195 192 176 162 154 145 141 130 117 95 85
284 283 289 291 286 268 279 335 281 287 330 38 36 251 177 134 32 1 319 288 222 208 201 219 213 201 203 212 220 233 237 239 236 225 208 195 184 195 192 178 159 150 144 142 137 139 131 125 108
309 314 308 300 284 306 42 342 256 284 217 191 199 323 6 79 34 266 277 228 260 222 244 212 214 201 200 204 214 233 241 239 239 222 201 217 172 189 181 165 141 138 143 134 135 135 123 116 108
293 275 277 291 293 294 304 265 257 271 197 181 49 337 279 257 131 335 34 9 348 255 235 239 249 204 202 207 209 224 248 235 240 231 219 217 177 174 159 146 148 143 143 140 135 121 109 106 99
318 310 297 284 280 275 271 262 349 11 350 74 157 335 50 51 47 55 39 28 18 16 0 0 2 7 309 254 211 214 243 245 245 242 221 202 191 142 145 141 137 141 145 137 125 118 106 97 102
254 271 297 271 287 290 305 333 288 28 9 333 355 330 18 114 62 49 21 9 10 3 345 327 323 340 315 313 267 208 236 247 250 244 218 184 153 141 139 147 146 144 134 127 118 106 107 108 81
302 290 264 283 273 272 291 297 129 135 221 288 300 -0 355 351 118 130 254 309 321 331 316 305 305 265 273 282 288 215 227 246 247 245 186 143 147 158 151 145 142 137 127 126 120 108 103 90 86
263 272 311 286 275 271 275 264 273 357 11 6 320 335 330 329 337 343 4 360 349 322 313 311 323 320 295 279 277 246 226 254 261 245 194 141 141 139 143 140 138 135 128 124 111 113 108 101 87